When you browse on this site, cookies collect data to enhance your experience and personalize the content and advertising you see.
Visit our Privacy Policy to learn more. By continuing to use the site, you agree to this use of cookies and data.
  • In Latvia
  • List of Countries
  • For 7 days
  • Water Temperature
  • Satellite Maps
  • Weather Map
  • Weather Widgets
  • user-avatar
    Login

    Hourly Weather Kipungo

    Today, 18 April, Thursday

    Time Temperature Precipitation Wind Pressure Humidity
    00:00 +19°C° 0 mm 0 mps 654 mmHg 75%
    01:00 +18°C° 0 mm 0 mps 654 mmHg 91%
    02:00 +18°C° 0.2 mm 0 mps 654 mmHg 91%
    03:00 +17°C° 0.2 mm 0 mps 653 mmHg 92%
    04:00 +17°C° 0.2 mm 0 mps 653 mmHg 93%
    05:00 +17°C° 0.1 mm 0 mps 653 mmHg 92%
    06:00 +18°C° 0.1 mm 0 mps 654 mmHg 91%
    07:00 +19°C° 0 mm 0 mps 654 mmHg 87%
    08:00 +24°C° 0 mm 1 mps 655 mmHg 74%
    09:00 +27°C° 0 mm 1 mps 656 mmHg 62%
    10:00 +30°C° 0 mm 1 mps 656 mmHg 50%
    11:00 +31°C° 0 mm 2 mps 656 mmHg 44%
    12:00 +32°C° 0 mm 2 mps 655 mmHg 39%
    13:00 +34°C° 0 mm 3 mps 655 mmHg 34%
    14:00 +34°C° 0 mm 3 mps 655 mmHg 36%
    15:00 +32°C° 0 mm 2 mps 654 mmHg 37%
    16:00 +32°C° 0 mm 2 mps 654 mmHg 39%
    17:00 +29°C° 0 mm 2 mps 654 mmHg 45%
    18:00 +27°C° 0 mm 1 mps 654 mmHg 51%
    19:00 +25°C° 0 mm 1 mps 653 mmHg 57%
    20:00 +24°C° 0.2 mm 1 mps 654 mmHg 64%
    21:00 +23°C° 0.2 mm 1 mps 654 mmHg 71%
    22:00 +21°C° 0.2 mm 2 mps 654 mmHg 78%
    23:00 +21°C° 0.6 mm 1 mps 654 mmHg 83%

    Tomorrow, 19 April, Friday

    Time Temperature Precipitation Wind Pressure Humidity
    00:00 +20°C° 0.6 mm 1 mps 654 mmHg 88%
    01:00 +18°C° 0.6 mm 0 mps 654 mmHg 93%
    02:00 +17°C° 0 mm 0 mps 653 mmHg 93%
    03:00 +17°C° 0 mm 0 mps 653 mmHg 94%
    04:00 +17°C° 0 mm 0 mps 653 mmHg 94%
    05:00 +17°C° 0 mm 0 mps 653 mmHg 93%
    06:00 +18°C° 0 mm 0 mps 654 mmHg 92%
    07:00 +19°C° 0 mm 0 mps 654 mmHg 90%
    08:00 +23°C° 0 mm 1 mps 655 mmHg 78%
    09:00 +26°C° 0 mm 1 mps 656 mmHg 65%
    10:00 +29°C° 0 mm 2 mps 657 mmHg 53%
    11:00 +30°C° 0 mm 2 mps 656 mmHg 47%
    12:00 +31°C° 0 mm 2 mps 656 mmHg 41%
    13:00 +34°C° 0 mm 2 mps 656 mmHg 36%
    14:00 +31°C° 0 mm 3 mps 655 mmHg 41%
    15:00 +30°C° 0 mm 3 mps 655 mmHg 46%
    16:00 +29°C° 0 mm 3 mps 654 mmHg 52%
    17:00 +26°C° 0.9 mm 3 mps 654 mmHg 65%
    18:00 +22°C° 0.9 mm 3 mps 653 mmHg 79%
    19:00 +19°C° 0.9 mm 3 mps 653 mmHg 92%
    20:00 +19°C° 0.6 mm 2 mps 654 mmHg 92%
    21:00 +19°C° 0.6 mm 2 mps 654 mmHg 93%
    22:00 +19°C° 0.6 mm 2 mps 655 mmHg 93%
    23:00 +20°C° 0.1 mm 1 mps 655 mmHg 94%

    Day after tomorrow, 20 April, Saturday

    Time Temperature Precipitation Wind Pressure Humidity
    00:00 +20°C° 0.1 mm 1 mps 654 mmHg 94%
    01:00 +19°C° 0.1 mm 1 mps 654 mmHg 95%
    02:00 +19°C° 0 mm 1 mps 654 mmHg 95%
    03:00 +19°C° 0 mm 1 mps 654 mmHg 95%
    04:00 +19°C° 0 mm 1 mps 653 mmHg 95%
    05:00 +19°C° 0.1 mm 1 mps 653 mmHg 95%
    06:00 +19°C° 0.1 mm 1 mps 654 mmHg 95%
    07:00 +20°C° 0.1 mm 1 mps 654 mmHg 94%
    08:00 +20°C° 0.2 mm 1 mps 654 mmHg 91%
    09:00 +21°C° 0.2 mm 1 mps 654 mmHg 88%
    10:00 +22°C° 0.2 mm 1 mps 655 mmHg 84%
    11:00 +24°C° 0.1 mm 1 mps 654 mmHg 76%
    12:00 +25°C° 0.1 mm 2 mps 654 mmHg 69%
    13:00 +27°C° 0.1 mm 2 mps 654 mmHg 61%
    14:00 +27°C° 0 mm 2 mps 653 mmHg 60%
    15:00 +27°C° 0 mm 2 mps 653 mmHg 60%
    16:00 +27°C° 0 mm 2 mps 653 mmHg 59%
    17:00 +25°C° 1.8 mm 2 mps 653 mmHg 71%
    18:00 +23°C° 1.8 mm 2 mps 652 mmHg 82%
    19:00 +19°C° 1.8 mm 2 mps 652 mmHg 94%
    20:00 +20°C° 0.3 mm 1 mps 653 mmHg 93%
    21:00 +20°C° 0.3 mm 1 mps 653 mmHg 92%
    22:00 +19°C° 0.3 mm 1 mps 653 mmHg 91%
    23:00 +19°C° 0.1 mm 1 mps 653 mmHg 92%

    21 April, Sunday

    Time Temperature Precipitation Wind Pressure Humidity
    00:00 +17°C° 0.1 mm 0 mps 653 mmHg 94%
    01:00 +16°C° 0.1 mm 0 mps 652 mmHg 95%
    02:00 +16°C° 0 mm 0 mps 652 mmHg 95%
    03:00 +16°C° 0 mm 0 mps 652 mmHg 96%
    04:00 +16°C° 0 mm 0 mps 652 mmHg 96%
    05:00 +16°C° 0 mm 0 mps 652 mmHg 95%
    06:00 +17°C° 0 mm 0 mps 653 mmHg 94%
    07:00 +17°C° 0 mm 0 mps 653 mmHg 94%
    08:00 +22°C° 0.2 mm 1 mps 654 mmHg 83%
    09:00 +25°C° 0.2 mm 1 mps 655 mmHg 72%
    10:00 +28°C° 0.2 mm 1 mps 655 mmHg 62%
    11:00 +30°C° 0.5 mm 1 mps 655 mmHg 54%
    12:00 +31°C° 0.5 mm 1 mps 655 mmHg 47%
    13:00 +33°C° 0.5 mm 1 mps 654 mmHg 40%
    14:00 +31°C° 0 mm 0 mps 654 mmHg 40%
    15:00 +30°C° 0 mm 0 mps 653 mmHg 40%
    16:00 +29°C° 0 mm 0 mps 653 mmHg 41%
    17:00 +27°C° 0 mm 0 mps 653 mmHg 47%
    18:00 +27°C° 0 mm 1 mps 653 mmHg 53%
    19:00 +25°C° 0 mm 1 mps 653 mmHg 60%
    20:00 +23°C° 1 mm 1 mps 653 mmHg 70%
    21:00 +22°C° 1 mm 1 mps 653 mmHg 80%
    22:00 +20°C° 1 mm 1 mps 653 mmHg 90%
    23:00 +20°C° 0.2 mm 1 mps 652 mmHg 91%

    22 April, Monday

    Time Temperature Precipitation Wind Pressure Humidity
    00:00 +20°C° 0.2 mm 1 mps 652 mmHg 91%
    01:00 +20°C° 0.2 mm 1 mps 652 mmHg 92%
    02:00 +18°C° 0 mm 0 mps 652 mmHg 92%
    03:00 +17°C° 0 mm 0 mps 652 mmHg 92%
    04:00 +17°C° 0 mm 0 mps 651 mmHg 92%
    05:00 +17°C° 0.1 mm 0 mps 652 mmHg 91%
    06:00 +18°C° 0.1 mm 0 mps 652 mmHg 91%
    07:00 +18°C° 0.1 mm 0 mps 653 mmHg 90%
    08:00 +21°C° 0 mm 0 mps 654 mmHg 79%
    09:00 +24°C° 0 mm 0 mps 654 mmHg 69%
    10:00 +28°C° 0 mm 1 mps 655 mmHg 59%
    11:00 +30°C° 0.1 mm 1 mps 655 mmHg 53%
    12:00 +31°C° 0.1 mm 1 mps 654 mmHg 48%
    13:00 +33°C° 0.1 mm 1 mps 654 mmHg 42%
    14:00 +30°C° 0 mm 0 mps 653 mmHg 43%
    15:00 +29°C° 0 mm 0 mps 653 mmHg 44%
    16:00 +28°C° 0 mm 0 mps 652 mmHg 45%
    17:00 +26°C° 0.1 mm 0 mps 652 mmHg 51%
    18:00 +26°C° 0.1 mm 1 mps 652 mmHg 58%
    19:00 +24°C° 0.1 mm 1 mps 652 mmHg 64%
    20:00 +23°C° 0.7 mm 1 mps 652 mmHg 71%
    21:00 +22°C° 0.7 mm 1 mps 653 mmHg 77%
    22:00 +21°C° 0.7 mm 1 mps 653 mmHg 83%
    23:00 +21°C° 0.1 mm 1 mps 652 mmHg 85%

    23 April, Tuesday

    Time Temperature Precipitation Wind Pressure Humidity
    00:00 +18°C° 0.1 mm 0 mps 652 mmHg 88%
    01:00 +18°C° 0.1 mm 0 mps 652 mmHg 90%
    02:00 +18°C° 0 mm 0 mps 652 mmHg 91%
    03:00 +17°C° 0 mm 0 mps 652 mmHg 92%
    04:00 +17°C° 0 mm 0 mps 651 mmHg 92%
    05:00 +18°C° 0 mm 0 mps 652 mmHg 91%
    06:00 +18°C° 0 mm 0 mps 653 mmHg 89%
    07:00 +18°C° 0 mm 0 mps 653 mmHg 88%
    08:00 +22°C° 0.1 mm 0 mps 654 mmHg 77%
    09:00 +25°C° 0.1 mm 0 mps 655 mmHg 66%
    10:00 +28°C° 0.1 mm 0 mps 656 mmHg 55%
    11:00 +29°C° 0 mm 0 mps 655 mmHg 49%
    12:00 +32°C° 0 mm 1 mps 655 mmHg 44%
    13:00 +34°C° 0 mm 1 mps 654 mmHg 38%
    14:00 +32°C° 0 mm 1 mps 654 mmHg 41%
    15:00 +31°C° 0 mm 1 mps 653 mmHg 43%
    16:00 +30°C° 0 mm 1 mps 653 mmHg 46%
    17:00 +29°C° 0 mm 1 mps 653 mmHg 50%
    18:00 +27°C° 0 mm 1 mps 653 mmHg 53%
    19:00 +26°C° 0 mm 1 mps 654 mmHg 57%
    20:00 +24°C° 0.7 mm 1 mps 653 mmHg 67%
    21:00 +23°C° 0.7 mm 1 mps 653 mmHg 77%
    22:00 +21°C° 0.7 mm 1 mps 653 mmHg 86%
    23:00 +21°C° 0 mm 1 mps 653 mmHg 87%
    Show more